Weather past 2 weeks in Philipsburg, Netherlands Antilles, Sint Maarten

Now
82 °F

Scattered clouds.


Feels Like: 88 °F
Forecast: 79 / 84 °F
Wind: 13 mph from East

Location: Juliana Airport - Saint Maarten

Current Time: Nov 22, 2014 at 10:26:22 AM

Latest Report: Nov 22, 2014 at 10:00 AM


Visibility: N/A

Pressure: 30.04 "Hg

Humidity: 74%

Dew point: 73 °F

Location of PhilipsburgLocation

Historic Weather in Philipsburg — Graph

°F

Philipsburg temperature yesterday

Maximum temperature yesterday: 84 °F (at 9:00 AM)
Minimum temperature yesterday: 77 °F (at 5:00 AM)
Average temperature yesterday: 81 °F

Past Weeks' High & Low Weather Summary

 TemperatureHumidityPressure
High88 °F (Nov 9, 12:00 PM)100% (Nov 7, 10:00 PM)30.09 "Hg (Nov 7, 10:00 PM)
Low72 °F (Nov 8, 4:00 AM)62% (Nov 12, 11:00 AM)27.24 "Hg (Nov 9, 4:00 AM)
Average82 °F76%29.95 "Hg
* Reported Nov 7 9:00 AM — Nov 22 9:00 AM, Philipsburg, Weather by CustomWeather, © 2014

Note: Actual official high and low records may vary slightly from our data, if they occured in-between our weather recording intervals... More about our weather records

Advertising

Philipsburg weather history for previous 24 hours

 ConditionsComfort  
Time TempWeatherWind HumidityBarometerVisibility
9:00 AM
Nov 22
82 °FScattered clouds.13 mph70%30.04 "HgN/A
8:00 AM81 °FScattered clouds.14 mph79%30.01 "HgN/A
7:00 AM81 °FScattered clouds.13 mph74%29.98 "HgN/A
6:00 AM79 °FLight rain. Passing clouds.15 mph84%29.98 "HgN/A
5:00 AM79 °FPassing clouds.10 mph89%29.95 "HgN/A
4:00 AM79 °FLight rain. Passing clouds.14 mph84%29.95 "HgN/A
3:00 AM79 °FLight rain. Passing clouds.9 mph84%29.95 "HgN/A
2:00 AM77 °FPassing clouds.13 mph89%29.98 "HgN/A
1:00 AM75 °FLight rain. Passing clouds.12 mph94%30.01 "HgN/A
10:00 PM
Nov 21
81 °FPassing clouds.14 mph79%30.01 "HgN/A
9:00 PM79 °FPassing clouds.9 mph84%30.01 "HgN/A
8:00 PM79 °FSprinkles. Passing clouds.10 mph79%30.01 "HgN/A
7:00 PM79 °FRain showers. Passing clouds.12 mph84%30.01 "Hg4 mi
6:00 PM79 °FPassing clouds.12 mph84%29.98 "HgN/A
5:00 PM81 °FScattered clouds.14 mph79%29.98 "HgN/A
4:00 PM81 °FPartly sunny.13 mph79%29.95 "HgN/A
3:00 PM81 °FLight rain. Partly sunny.13 mph79%29.95 "HgN/A
2:00 PM82 °FPassing clouds.15 mph74%29.98 "HgN/A
1:00 PM82 °FScattered clouds.17 mph74%29.98 "HgN/A
12:00 PM84 °FPassing clouds.13 mph70%30.01 "HgN/A
11:00 AM84 °FScattered clouds.12 mph70%30.01 "HgN/A
10:00 AM84 °FPassing clouds.12 mph70%30.04 "HgN/A
Weather by CustomWeather, © 2014

See weather overviewHow to use our weather pages